BAW256 VIDP-EGLL

Flight info

Callsign BAW256
Flight time N/A
Altitude 36000
Route SURAM7E SURAM G333 MERUN L750 KADVI/N0480F380 L750 RANAH B449 MAMED B450 BIBIM A909 RODAR M11 ERLEV L850 ADEKI DCT BADIR DCT LAGAS DCT FOQUS DCT SARPI/N0482F400 UM10 GOKPA UL746 ODERO DCT LUGEB DCT SOKRU DCT DEGET DCT OGVUN DCT ABETI DCT RENKA DCT INBED DCT BOMBI DCT ADKUV DCT SOGRI DCT DENUT L608 LOGAN LOGAN2H
Aircraft B772/H-SDE1E3FGHIJ3J4J5J6M1M2P2RWXYZ/LB1D1

Departure

Time 2026-05-06 21:11
Airport Indira Gandhi International Airport (VIDP)

Arrival

Time N/A
Airport London Heathrow Airport (EGLL)
Time Latitude Longitude Altitude Speed Heading
2026-05-06 20:57 28.55788 77.08283 738 ft 0 kts 105°
2026-05-06 21:01 28.55790 77.08278 737 ft 4 kts 105°
2026-05-06 21:01 28.55796 77.08248 736 ft 4 kts 100°
2026-05-06 21:01 28.55799 77.08219 737 ft 4 kts 91°
2026-05-06 21:02 28.55797 77.08194 736 ft 2 kts 66°
2026-05-06 21:02 28.55788 77.08178 734 ft 2 kts 33°
2026-05-06 21:02 28.55775 77.08170 734 ft 2 kts 19°
2026-05-06 21:02 28.55764 77.08166 735 ft 2 kts 15°
2026-05-06 21:03 28.55760 77.08165 737 ft 0 kts 15°
2026-05-06 21:04 28.55787 77.08172 738 ft 5 kts 13°
2026-05-06 21:05 28.55836 77.08172 737 ft 11 kts 344°
2026-05-06 21:05 28.55910 77.08128 737 ft 12 kts 329°
2026-05-06 21:05 28.55982 77.08078 736 ft 12 kts 327°
2026-05-06 21:05 28.56025 77.07996 736 ft 12 kts 289°
2026-05-06 21:06 28.56071 77.07918 737 ft 13 kts 337°
2026-05-06 21:06 28.56140 77.07922 738 ft 7 kts 10°
2026-05-06 21:06 28.56187 77.07932 735 ft 7 kts 10°
2026-05-06 21:06 28.56235 77.07944 736 ft 7 kts 14°
2026-05-06 21:07 28.56282 77.07958 736 ft 7 kts 14°
2026-05-06 21:07 28.56330 77.07972 735 ft 8 kts 14°
2026-05-06 21:07 28.56389 77.07990 734 ft 9 kts 15°
2026-05-06 21:07 28.56451 77.08021 736 ft 10 kts 38°
2026-05-06 21:08 28.56495 77.08091 735 ft 11 kts 61°
2026-05-06 21:08 28.56499 77.08100 736 ft 11 kts 61°
2026-05-06 21:08 28.56519 77.08140 735 ft 11 kts 61°
2026-05-06 21:09 28.56556 77.08217 736 ft 11 kts 61°
2026-05-06 21:09 28.56592 77.08294 737 ft 11 kts 61°
2026-05-06 21:09 28.56630 77.08371 735 ft 11 kts 61°
2026-05-06 21:09 28.56667 77.08447 736 ft 11 kts 61°
2026-05-06 21:10 28.56702 77.08524 735 ft 11 kts 71°
2026-05-06 21:10 28.56702 77.08591 735 ft 0 kts 103°
2026-05-06 21:10 28.56697 77.08615 736 ft 12 kts 103°
2026-05-06 21:10 28.56621 77.08954 740 ft 78 kts 105°
2026-05-06 21:11 28.56426 77.09796 753 ft 140 kts 105°
2026-05-06 21:11 28.56145 77.11037 958 ft 173 kts 104°
2026-05-06 21:11 28.55816 77.12385 1611 ft 181 kts 105°
2026-05-06 21:11 28.55477 77.13815 2108 ft 197 kts 105°
2026-05-06 21:12 28.55107 77.15402 2266 ft 215 kts 105°
2026-05-06 21:12 28.54706 77.17136 2370 ft 237 kts 105°
2026-05-06 21:12 28.54275 77.18988 2641 ft 253 kts 105°
2026-05-06 21:12 28.53825 77.20952 3163 ft 261 kts 104°
2026-05-06 21:13 28.53363 77.22973 3684 ft 267 kts 104°
2026-05-06 21:13 28.52887 77.25047 4188 ft 273 kts 104°
2026-05-06 21:13 28.52402 77.27158 4736 ft 278 kts 104°
2026-05-06 21:13 28.51907 77.29306 5283 ft 282 kts 104°
2026-05-06 21:14 28.51405 77.31476 5881 ft 283 kts 106°
2026-05-06 21:14 28.50487 77.33449 6220 ft 289 kts 135°
2026-05-06 21:14 28.48828 77.34667 6677 ft 291 kts 164°
2026-05-06 21:14 28.46838 77.34916 7191 ft 288 kts 189°
2026-05-06 21:15 28.44925 77.34285 7699 ft 286 kts 207°
2026-05-06 21:15 28.43114 77.33338 8173 ft 287 kts 209°
2026-05-06 21:15 28.41908 77.32698 8529 ft 288 kts 209°
2026-05-06 21:15 28.40081 77.31743 9090 ft 290 kts 209°
2026-05-06 21:16 28.37634 77.30484 9756 ft 292 kts 210°
2026-05-06 21:16 28.35771 77.29505 10053 ft 297 kts 215°
2026-05-06 21:16 28.34659 77.28535 10090 ft 299 kts 234°
2026-05-06 21:16 28.33655 77.26463 10233 ft 307 kts 258°
2026-05-06 21:17 28.33285 77.24078 10325 ft 319 kts 264°
2026-05-06 21:17 28.32978 77.21503 10525 ft 336 kts 264°
2026-05-06 21:17 28.32654 77.18837 10965 ft 346 kts 264°
2026-05-06 21:17 28.32343 77.16110 11544 ft 349 kts 268°
2026-05-06 21:18 28.32462 77.13349 12207 ft 351 kts 281°
2026-05-06 21:18 28.33036 77.10656 13003 ft 352 kts 289°
2026-05-06 21:18 28.33901 77.08045 13741 ft 355 kts 292°
2026-05-06 21:18 28.34819 77.05429 14405 ft 359 kts 292°
2026-05-06 21:19 28.35757 77.02784 15104 ft 363 kts 292°
2026-05-06 21:19 28.36696 77.00131 15785 ft 368 kts 292°
2026-05-06 21:19 28.37652 76.97417 16472 ft 372 kts 292°
2026-05-06 21:19 28.38614 76.94672 17142 ft 377 kts 292°
2026-05-06 21:20 28.39588 76.91880 17832 ft 382 kts 292°
2026-05-06 21:20 28.40569 76.89057 18460 ft 386 kts 292°
2026-05-06 21:20 28.41561 76.86196 19109 ft 390 kts 292°
2026-05-06 21:20 28.42559 76.83314 19732 ft 394 kts 292°
2026-05-06 21:21 28.43567 76.80395 20359 ft 398 kts 292°
2026-05-06 21:21 28.44581 76.77456 20979 ft 402 kts 292°
2026-05-06 21:21 28.45608 76.74480 21581 ft 406 kts 292°
2026-05-06 21:21 28.46644 76.71475 22195 ft 409 kts 292°
2026-05-06 21:22 28.47684 76.68453 22795 ft 413 kts 292°
2026-05-06 21:22 28.48724 76.65431 23336 ft 417 kts 292°
2026-05-06 21:22 28.49785 76.62347 23792 ft 421 kts 292°
2026-05-06 21:22 28.50853 76.59237 24280 ft 423 kts 292°
2026-05-06 21:23 28.51927 76.56108 24788 ft 425 kts 292°
2026-05-06 21:23 28.53005 76.52964 25275 ft 427 kts 292°
2026-05-06 21:23 28.54085 76.49811 25729 ft 429 kts 292°
2026-05-06 21:23 28.55171 76.46637 26137 ft 432 kts 292°
2026-05-06 21:24 28.56264 76.43441 26521 ft 435 kts 292°
2026-05-06 21:24 28.57366 76.40215 26900 ft 438 kts 292°
2026-05-06 21:24 28.58471 76.36979 27306 ft 440 kts 292°
2026-05-06 21:24 28.59582 76.33723 27694 ft 442 kts 291°
2026-05-06 21:25 28.60679 76.30503 28053 ft 444 kts 292°
2026-05-06 21:25 28.61798 76.27218 28408 ft 446 kts 291°
2026-05-06 21:25 28.62924 76.23906 28756 ft 448 kts 291°
2026-05-06 21:25 28.64052 76.20585 29075 ft 450 kts 291°
2026-05-06 21:26 28.65185 76.17247 29373 ft 452 kts 291°
2026-05-06 21:26 28.66319 76.13904 29662 ft 454 kts 291°
2026-05-06 21:26 28.67457 76.10546 29912 ft 455 kts 291°
2026-05-06 21:26 28.68585 76.07212 30127 ft 457 kts 291°
2026-05-06 21:27 28.69729 76.03829 30333 ft 458 kts 291°
2026-05-06 21:27 28.70874 76.00443 30599 ft 457 kts 291°
2026-05-06 21:27 28.72014 75.97064 30936 ft 454 kts 291°
2026-05-06 21:27 28.73133 75.93703 31300 ft 451 kts 289°
2026-05-06 21:28 28.73935 75.90251 31628 ft 450 kts 282°
2026-05-06 21:28 28.74362 75.86770 31921 ft 450 kts 277°
2026-05-06 21:28 28.74538 75.83214 32218 ft 450 kts 272°
2026-05-06 21:28 28.74360 75.79656 32493 ft 450 kts 268°
2026-05-06 21:29 28.74047 75.76110 32767 ft 449 kts 267°
2026-05-06 21:29 28.73711 75.72575 33060 ft 447 kts 267°
2026-05-06 21:29 28.73373 75.69049 33344 ft 446 kts 267°
2026-05-06 21:29 28.73042 75.65542 33614 ft 444 kts 268°
2026-05-06 21:30 28.72720 75.62047 33850 ft 443 kts 268°
2026-05-06 21:30 28.72404 75.58553 34041 ft 443 kts 268°
2026-05-06 21:30 28.72093 75.55062 34212 ft 442 kts 268°
2026-05-06 21:30 28.71783 75.51573 34405 ft 442 kts 268°
2026-05-06 21:31 28.71476 75.48124 34577 ft 441 kts 268°
2026-05-06 21:31 28.71166 75.44635 34765 ft 441 kts 268°
2026-05-06 21:31 28.70856 75.41168 34934 ft 441 kts 268°
2026-05-06 21:31 28.70544 75.37696 35121 ft 440 kts 268°
2026-05-06 21:32 28.70231 75.34218 35297 ft 440 kts 268°
2026-05-06 21:32 28.69606 75.27299 35644 ft 439 kts 268°
2026-05-06 21:32 28.69295 75.23876 35797 ft 439 kts 268°
2026-05-06 21:33 28.68979 75.20412 35964 ft 438 kts 268°
2026-05-06 21:33 28.68664 75.16957 36132 ft 438 kts 268°
2026-05-06 21:33 28.68347 75.13503 36292 ft 437 kts 268°
2026-05-06 21:33 28.68031 75.10058 36442 ft 437 kts 268°
2026-05-06 21:34 28.67714 75.06614 36592 ft 437 kts 268°
2026-05-06 21:34 28.67399 75.03209 36746 ft 436 kts 268°
2026-05-06 21:34 28.67080 74.99768 36898 ft 436 kts 268°
2026-05-06 21:34 28.66762 74.96342 37049 ft 435 kts 268°
2026-05-06 21:35 28.66443 74.92914 37177 ft 435 kts 268°
2026-05-06 21:35 28.66123 74.89488 37325 ft 435 kts 268°
2026-05-06 21:35 28.65801 74.86056 37468 ft 434 kts 268°
2026-05-06 21:35 28.65480 74.82635 37591 ft 434 kts 268°
2026-05-06 21:36 28.64834 74.75788 37704 ft 435 kts 268°
2026-05-06 21:36 28.64184 74.68932 37728 ft 435 kts 268°
2026-05-06 21:37 28.63536 74.62137 37727 ft 434 kts 268°
2026-05-06 21:37 28.62880 74.55296 37722 ft 434 kts 268°
2026-05-06 21:38 28.62222 74.48467 37717 ft 433 kts 268°
2026-05-06 21:38 28.61563 74.41660 37721 ft 433 kts 268°
2026-05-06 21:39 28.60899 74.34847 37721 ft 433 kts 268°
2026-05-06 21:39 28.60233 74.28044 37715 ft 432 kts 268°
2026-05-06 21:40 28.59563 74.21237 37716 ft 432 kts 268°
2026-05-06 21:40 28.58895 74.14480 37711 ft 432 kts 268°
2026-05-06 21:41 28.58219 74.07683 37708 ft 432 kts 268°
2026-05-06 21:41 28.57538 74.00863 37706 ft 432 kts 268°
2026-05-06 21:42 28.56859 73.94101 37702 ft 432 kts 268°
2026-05-06 21:42 28.56174 73.87309 37702 ft 432 kts 268°